Regional Weather Roundup
Issued by NWS

Home | Current Version | Previous Version | Text Only | Print | Product List | Glossary On
Versions: 1 2 3 4 5 6 7 8 9 10 11 12 13 14 15 16 17 18 19 20 21 22 23 24 25 26 27 28 29 30 31 32 33 34 35 36 37 38 39 40 41 42 43 44 45 46 47 48 49 50
628
ASUS43 KDTX 061301
RWRMI
MICHIGAN HOURLY REGIONAL WEATHER ROUNDUP
NATIONAL WEATHER SERVICE DETROIT/PONTIAC MI
800 AM EST SAT FEB 06 2016

NOTE: "FAIR" INDICATES FEW OR NO CLOUDS BELOW 12,000 FEET WITH NO
SIGNIFICANT WEATHER AND/OR OBSTRUCTION TO VISIBILITY.

MIZ047>049-052>055-059>063-066>070-074>076-081>083-061400-
SOUTHEAST LOWER MICHIGAN

CITY           SKY/WX    TMP DP  RH WIND       PRES   REMARKS
ADRIAN         PTCLDY    31  20  63 SW7       30.29S WCI  24
ALMA           CLOUDY    26  23  90 S7        30.23S WCI  18
ANN ARBOR      MOCLDY    22  19  89 SW3       30.27S
BAD AXE        CLOUDY    25  20  82 SW8       30.21F WCI  16
CARO           CLOUDY    24  20  83 SW8       30.22F WCI  15
DETROIT CITY   CLOUDY    26  19  74 SW7       30.28S WCI  18
DETROIT        MOCLDY    26  21  81 SW9       30.30R WCI  17
FLINT          MOCLDY    27  20  75 SW9       30.25S WCI  18
GROSSE ILE     MOCLDY    27  21  80 SW3       30.28S
HILLSDALE      MOCLDY    22  22  97 SW6       30.26S FOG     WCI  15
HOWELL         MOCLDY    24  22  93 SW6       30.24F FOG     WCI  17

CITY           SKY/WX    TMP DP  RH WIND       PRES   REMARKS
JACKSON        PTCLDY    24  20  84 SW6       30.26S FOG     WCI  17
LAMBERTVILLE   CLEAR     23  21  91 SW3       30.31S FOG
LANSING        CLOUDY    26  22  84 SW9       30.25F WCI  17
LAPEER         FAIR      23  20  85 SW3       30.24F
MASON          CLOUDY    26  23  89 SW5       30.25F WCI  20
MONROE         PTCLDY    25  22  86 SW3       30.30R
MT. CLEMENS    MOCLDY    26  20  76 SW5       30.26S WCI  21
PONTIAC        PTCLDY    24  20  84 W9        30.24S WCI  14
PORT HOPE        N/A     25  19  78 SW8G16    30.19S WCI  16
PORT HURON     CLOUDY    25  19  80 SW3       30.27S
TRI CITIES     CLOUDY    26  19  74 SW9       30.23S WCI  17
MIDLAND        CLOUDY    26  19  76 S5        30.21F WCI  20
TROY           CLOUDY    27  22  82 SW3       30.28S
SAGINAW HB     CLOUDY    27  23  86 S10       30.23F WCI  17
$$
MIZ043>046-050>051-056>058-064>065-071>073-077>080-061400-
SOUTHWEST LOWER MICHIGAN

CITY           SKY/WX    TMP DP  RH WIND       PRES   REMARKS
BATTLE CREEK   CLOUDY    24  21  88 SW7       30.26F FOG     WCI  16
BENTON HARBOR  CLOUDY    26  22  84 S7        30.28S FOG     WCI  18
BIG RAPIDS     CLOUDY    28  22  81 SW6       30.17S WCI  21
COLDWATER      CLOUDY    23  23 100 SW6       30.28S FOG     WCI  16
FREMONT        CLOUDY    28  23  82 S3        30.20S
HOLLAND        CLOUDY    30  21  69 SW9       30.24F WCI  22
GRAND RAPIDS   CLOUDY    27  24  89 SW10      30.24S FOG     WCI  17
IONIA          CLOUDY    26  23  89 SW8       30.23S FOG     WCI  18
KALAMAZOO      CLOUDY    25  21  85 SW8       30.27F FOG     WCI  16
LUDINGTON      CLOUDY    32  20  62 W14G20    30.19S WCI  22
MARSHALL       CLOUDY    24  22  89 SW6       30.26S FOG     WCI  17
MOUNT PLEASANT CLOUDY    28  20  73 S3        30.19F
MUSKEGON       CLOUDY    32  19  58 SW13      30.22F WCI  22
SOUTH HAVEN    MOCLDY    26  25  94 S5        30.26F FOG     WCI  21
$$
MIZ016>042-061400-
NORTHERN LOWER MICHIGAN

CITY           SKY/WX    TMP DP  RH WIND       PRES   REMARKS
ALPENA         CLOUDY    24  17  74 SW7       30.11F WCI  16
BEAVER ISLAND  LGT SNOW  28  24  84 W18       30.08S WCI  15
BELLAIRE       LGT SNOW  27  24  87 S5        30.13F WCI  22
CADILLAC       CLOUDY    25  21  84 SW12      30.11F WCI  14
CHARLEVOIX     LGT SNOW  30  27  90 W16G23    30.12S WCI  18
FRANKFORT      LGT SNOW  31  25  78 W13       30.15S WCI  21
GAYLORD        LGT SNOW  24  19  81 SW13      30.07F WCI  12
GRAYLING       CLOUDY    24  19  80 SW5       30.12F WCI  18
HARBOR SPRINGS LGT SNOW  29  26  89 SW15G24   30.07F WCI  18
HOUGHTON LAKE  CLOUDY    23  17  78 SW9       30.14F WCI  13
MANISTEE       CLOUDY    30  18  59 W15       30.17S WCI  19
OSCODA         CLOUDY    24  18  78 SW9       30.16F WCI  15
PELLSTON       LGT SNOW  29  25  85 W9G18     30.07S FOG     WCI  20
ROGERS CITY    CLOUDY    26  19  75 SW9       30.08F WCI  16
TRAVERSE CITY  LGT SNOW  28  22  78 VRB5      30.12F WCI  23
$$
MIZ007>008-015-061400-
EASTERN UPPER MICHIGAN

CITY           SKY/WX    TMP DP  RH WIND       PRES   REMARKS
KINROSS        CLOUDY    25  25 100 W8        30.04R WCI  16
MACKINAC ISLAN LGT SNOW  27  27 100 W18G25    30.05S WCI  13
NEWBERRY       CLOUDY    23  19  82 SW9       30.04R WCI  13
S. S. MARIE    CLOUDY    25  20  81 SW12      30.02S WCI  14
$$
MIZ004>006-011>014-085-061400-
CENTRAL UPPER MICHIGAN

CITY           SKY/WX    TMP DP  RH WIND       PRES   REMARKS
MANISTIQUE     CLOUDY    25  18  76 W5        30.07R WCI  19
ESCANABA       CLOUDY    25  18  74 SW5       30.10R WCI  19
MENOMINEE      CLOUDY    25  19  80 SW5       30.12S WCI  19
SAWYER-GWINN   CLOUDY    21  18  86 SW7       30.02F WCI  13
$$
MIZ001>003-009>011-084-061400-
WESTERN UPPER MICHIGAN

CITY           SKY/WX    TMP DP  RH WIND       PRES   REMARKS
IRON MOUNTAIN  CLOUDY    23  16  74 VRB6      30.05S WCI  16
HOUGHTON       CLOUDY    26  19  74 W15       29.98F WCI  14
COPPER HARBOR    N/A     29  21  72 N16       30.00S WCI  17
IRONWOOD       CLOUDY    19  18  93 SW7       30.02S WCI  10
$$

ABBREVIATIONS USED IN REMARKS
   TC - TEMPERATURE IN CELSIUS
  WCI - WIND CHILL INDEX
   HX - HEAT INDEX
  VSB - VISIBILITY





USA.gov is the U.S. government's official web portal to all federal, state and local government web resources and services.